Data for 10/06/2010

Time Sea-Level Adjusted Pressure Absolute Pressure Temperature Relative Humidity Dew Point   
(mb) (inHg) (mb) (inHg) (C) (F) (%) (C) (F)
00:05 1029 30.39 858 25.34 9.3 48.8 83 6.7 44
00:10 1029 30.39 858 25.34 9.3 48.7 83 6.5 43.8
00:15 1029 30.39 858 25.34 9.3 48.8 83 6.7 44
00:20 1029 30.39 858 25.34 9.3 48.7 84 6.7 44.1
00:25 1029 30.39 858 25.34 9 48.1 86 6.7 44.1
00:30 1029 30.39 858 25.34 8.9 48.1 86 6.7 44.1
00:35 1029 30.39 858 25.34 8.7 47.7 86 6.6 43.8
00:40 1029 30.39 858 25.34 8.5 47.3 86 6.4 43.5
00:45 1028 30.36 858 25.34 8.5 47.3 87 6.4 43.6
00:50 1028 30.36 858 25.34 8.5 47.3 87 6.5 43.7
00:55 1029 30.39 858 25.34 8.4 47.2 88 6.5 43.8
01:00 1029 30.39 858 25.34 8.2 46.7 89 6.4 43.5
01:05 1029 30.39 858 25.34 8.1 46.5 89 6.4 43.4
01:10 1029 30.39 858 25.34 8 46.3 89 6.3 43.4
01:15 1029 30.39 858 25.34 8 46.3 90 6.4 43.6
01:20 1029 30.39 858 25.34 8 46.4 89 6.4 43.4
01:25 1029 30.39 858 25.34 7.9 46.2 89 6.2 43.2
01:30 1029 30.39 858 25.34 8 46.3 89 6.2 43.2
01:35 1029 30.39 858 25.34 8 46.4 89 6.2 43.2
01:40 1029 30.39 858 25.34 7.9 46.2 90 6.3 43.4
01:45 1029 30.39 858 25.34 8 46.4 89 6.3 43.4
01:50 1029 30.39 858 25.34 8.1 46.6 88 6.3 43.3
01:55 1029 30.39 858 25.34 7.9 46.2 90 6.4 43.4
02:00 1029 30.39 858 25.34 8 46.4 89 6.3 43.3
02:05 1029 30.39 858 25.34 8.2 46.8 88 6.3 43.3
02:10 1029 30.39 858 25.34 8.3 46.9 87 6.2 43.2
02:15 1029 30.39 858 25.34 8.4 47 87 6.3 43.4
02:20 1029 30.39 858 25.34 8.4 47.1 88 6.5 43.6
02:25 1029 30.39 858 25.34 8.4 47.1 87 6.3 43.4
02:30 1029 30.39 858 25.34 8.3 46.9 87 6.3 43.4
02:35 1029 30.39 858 25.34 8 46.5 88 6.3 43.3
02:40 1029 30.39 858 25.34 8.2 46.7 87 6.1 43.1
02:45 1029 30.39 858 25.34 8.2 46.8 88 6.4 43.5
02:50 1029 30.39 858 25.34 8.3 46.9 87 6.2 43.1
02:55 1029 30.39 858 25.34 8.4 47.1 86 6.2 43.1
03:00 1029 30.39 858 25.34 8.4 47.1 86 6.2 43.2
03:05 1029 30.39 858 25.34 8.4 47 86 6.2 43.2
03:10 1029 30.39 858 25.34 8.3 47 86 6.1 43.1
03:15 1029 30.39 858 25.34 8.3 47 86 6.2 43.1
03:20 1029 30.39 858 25.34 8.4 47.2 86 6.2 43.2
03:25 1029 30.39 858 25.34 8.4 47.1 86 6.2 43.2
03:30 1029 30.39 858 25.34 8.3 47 87 6.2 43.2
03:35 1029 30.39 858 25.34 8.3 46.9 87 6.2 43.2
03:40 1029 30.39 858 25.34 8.2 46.8 87 6.3 43.3
03:45 1029 30.39 858 25.34 8.3 46.9 87 6.2 43.2
03:50 1029 30.39 858 25.34 8.3 46.9 87 6.2 43.2
03:55 1029 30.39 858 25.34 8.3 46.9 87 6.2 43.2
04:00 1029 30.39 858 25.34 8.3 46.9 87 6.3 43.3
04:05 1029 30.39 858 25.34 8.2 46.7 88 6.3 43.3
04:10 1029 30.39 858 25.34 8.2 46.8 87 6.2 43.1
04:15 1029 30.39 858 25.34 8.2 46.7 87 6.2 43.2
04:20 1029 30.39 858 25.34 8.2 46.8 87 6.2 43.1
04:25 1029 30.39 858 25.34 8.3 47 86 6.2 43.2
04:30 1029 30.39 858 25.34 8.4 47.1 86 6.3 43.3
04:35 1029 30.39 858 25.34 8.4 47.1 86 6.2 43.2
04:40 1028 30.36 858 25.34 8.3 47 87 6.3 43.3
04:45 1028 30.36 858 25.34 8.4 47 86 6.2 43.2
04:50 1028 30.36 858 25.34 8.4 47.1 87 6.3 43.4
04:55 1028 30.36 858 25.34 8.3 47 87 6.3 43.3
05:00 1028 30.36 858 25.34 8.4 47.1 88 6.4 43.6
05:05 1028 30.36 858 25.34 8.5 47.4 87 6.6 43.8
05:10 1028 30.36 858 25.34 8.4 47.1 86 6.3 43.3
05:15 1028 30.36 858 25.34 8.2 46.8 87 6.2 43.1
05:20 1028 30.36 858 25.34 8.2 46.7 87 6.2 43.1
05:25 1028 30.36 857 25.31 8.3 46.9 88 6.4 43.6
05:30 1028 30.36 858 25.34 8.1 46.5 88 6.2 43.2
05:35 1028 30.36 858 25.34 7.9 46.2 89 6.2 43.1
05:40 1028 30.36 858 25.34 8 46.3 88 6.1 42.9
05:45 1028 30.36 858 25.34 8 46.4 89 6.3 43.3
05:50 1028 30.36 858 25.34 8.2 46.8 88 6.3 43.3
05:55 1028 30.36 858 25.34 8.3 47 88 6.4 43.5
06:00 1028 30.36 857 25.31 8.4 47 88 6.5 43.6
06:05 1028 30.36 857 25.31 8.5 47.2 86 6.3 43.3
06:10 1028 30.36 857 25.31 8.5 47.3 87 6.4 43.5
06:15 1028 30.36 857 25.31 8.5 47.3 88 6.6 43.8
06:20 1028 30.36 857 25.31 8.6 47.5 88 6.7 44
06:25 1028 30.36 857 25.31 8.8 47.8 87 6.8 44.2
06:30 1028 30.36 857 25.31 8.9 48 88 7 44.6
06:35 1028 30.36 857 25.31 8.9 48.1 87 6.9 44.5
06:40 1028 30.36 857 25.31 8.8 47.8 86 6.6 43.9
06:45 1028 30.36 857 25.31 8.6 47.4 87 6.5 43.8
06:50 1028 30.36 857 25.31 8.4 47.2 88 6.5 43.8
06:55 1028 30.36 857 25.31 8.5 47.3 88 6.7 44
07:00 1028 30.36 857 25.31 8.4 47.2 89 6.8 44.2
07:05 1028 30.36 857 25.31 8.4 47.2 89 6.7 44
07:10 1028 30.36 857 25.31 8.5 47.2 88 6.6 43.9
07:15 1028 30.36 857 25.31 8.3 46.9 90 6.8 44.2
07:20 1028 30.36 857 25.31 8.7 47.6 89 6.9 44.4
07:25 1028 30.36 857 25.31 8.8 47.8 88 6.9 44.5
07:30 1028 30.36 857 25.31 8.5 47.3 88 6.6 43.9
07:35 1028 30.36 857 25.31 8.3 47 88 6.5 43.7
07:40 1028 30.36 857 25.31 8.2 46.8 89 6.5 43.6
07:45 1028 30.36 857 25.31 8.2 46.7 88 6.4 43.5
07:50 1028 30.36 857 25.31 8 46.4 88 6.2 43.2
07:55 1028 30.36 857 25.31 8.1 46.5 88 6.2 43.1
08:00 1028 30.36 857 25.31 8.2 46.8 87 6.2 43.1
08:05 1028 30.36 857 25.31 8.6 47.5 84 6 42.8
08:10 1028 30.36 857 25.31 8.9 48.1 84 6.4 43.5
08:15 1028 30.36 857 25.31 9.1 48.4 81 6.1 43
08:20 1028 30.36 857 25.31 9.6 49.3 79 6.1 43.1
08:25 1028 30.36 857 25.31 9.6 49.3 79 6.2 43.1
08:30 1028 30.36 857 25.31 9.6 49.3 80 6.3 43.4
08:35 1028 30.36 857 25.31 9.5 49.1 80 6.2 43.2
08:40 1028 30.36 857 25.31 9.3 48.7 82 6.3 43.3
08:45 1028 30.36 857 25.31 9.1 48.4 82 6.3 43.3
08:50 1028 30.36 857 25.31 8.9 48 84 6.3 43.4
08:55 1028 30.36 857 25.31 8.7 47.7 84 6.2 43.2
09:00 1028 30.36 857 25.31 8.6 47.5 84 6.1 43
09:05 1027 30.33 857 25.31 8.9 48.1 83 6.2 43.1
09:10 1027 30.33 857 25.31 9 48.3 83 6.2 43.2
09:15 1028 30.36 857 25.31 9.1 48.5 82 6.3 43.3
09:20 1028 30.36 857 25.31 9.1 48.4 82 6.2 43.2
09:25 1027 30.33 857 25.31 9.5 49 80 6.3 43.3
09:30 1027 30.33 857 25.31 9.7 49.5 80 6.5 43.7
09:35 1027 30.33 857 25.31 9.9 49.7 79 6.5 43.6
09:40 1028 30.36 857 25.31 9.6 49.2 82 6.7 44
09:45 1028 30.36 857 25.31 9.4 48.9 82 6.5 43.6
09:50 1028 30.36 857 25.31 9.3 48.8 82 6.5 43.7
09:55 1028 30.36 857 25.31 9.4 48.9 82 6.4 43.6
10:00 1028 30.36 857 25.31 9.6 49.3 82 6.6 43.9
10:05 1028 30.36 857 25.31 9.8 49.6 79 6.4 43.4
10:10 1028 30.36 857 25.31 10.1 50.1 79 6.6 44
10:15 1028 30.36 857 25.31 9.9 49.8 81 6.8 44.2
10:20 1028 30.36 857 25.31 10.1 50.2 79 6.6 43.9
10:25 1028 30.36 857 25.31 10.7 51.2 77 6.8 44.3
10:30 1028 30.36 857 25.31 10.7 51.3 78 7 44.7
10:35 1028 30.36 857 25.31 11 51.7 75 6.8 44.2
10:40 1028 30.36 857 25.31 11.1 51.9 77 7.3 45.1
10:45 1028 30.36 857 25.31 11 51.9 75 6.9 44.3
10:50 1028 30.36 857 25.31 11.3 52.3 73 6.6 43.9
10:55 1028 30.36 857 25.31 11.7 53 73 7 44.6
11:00 1027 30.33 857 25.31 12.3 54.2 68 6.7 44
11:05 1027 30.33 857 25.31 12.6 54.7 68 6.9 44.5
11:10 1027 30.33 856 25.28 12.8 55.1 68 7.1 44.8
11:15 1027 30.33 856 25.28 13.3 55.9 64 6.7 44.1
11:20 1027 30.33 856 25.28 13.8 56.8 64 7.2 45
11:25 1027 30.33 856 25.28 13.5 56.3 65 7.1 44.8
11:30 1027 30.33 856 25.28 13 55.4 66 6.8 44.2
11:35 1027 30.33 856 25.28 13.8 56.8 63 6.9 44.4
11:40 1027 30.33 856 25.28 14.8 58.7 60 7.2 44.9
11:45 1027 30.33 856 25.28 15 59.1 59 7.1 44.7
11:50 1027 30.33 856 25.28 15.3 59.5 61 7.8 46
11:55 1027 30.33 856 25.28 14.1 57.4 66 7.8 46.1
12:00 1027 30.33 856 25.28 13.2 55.7 66 7 44.6
12:05 1026 30.3 856 25.28 14.1 57.3 61 6.7 44.1
12:10 1026 30.3 856 25.28 14.4 57.9 60 6.7 44.1
12:15 1026 30.3 856 25.28 15.3 59.6 57 7 44.6
12:20 1026 30.3 855 25.25 15.8 60.4 56 7.1 44.8
12:25 1026 30.3 855 25.25 15.6 60 57 7.3 45.1
12:30 1026 30.3 855 25.25 15 59 61 7.6 45.7
12:35 1026 30.3 855 25.25 15.3 59.5 56 6.7 44
12:40 1026 30.3 855 25.25 16.1 61 55 7.1 44.8
12:45 1026 30.3 855 25.25 16.7 62 54 7.3 45.1
12:50 1026 30.3 855 25.25 16.1 61 59 8.1 46.6
12:55 1026 30.3 855 25.25 15.6 60.1 59 7.7 45.8
13:00 1026 30.3 855 25.25 15.5 59.9 60 7.8 46
13:05 1026 30.3 855 25.25 16 60.7 55 7 44.6
13:10 1026 30.3 855 25.25 16.8 62.3 54 7.4 45.4
13:15 1025 30.27 855 25.25 16.8 62.2 53 7.2 44.9
13:20 1025 30.27 855 25.25 17.2 62.9 55 8.2 46.7
13:25 1025 30.27 854 25.22 16.5 61.7 55 7.5 45.5
13:30 1025 30.27 854 25.22 17.1 62.8 54 7.7 45.9
13:35 1025 30.27 854 25.22 17.1 62.8 54 7.9 46.2
13:40 1025 30.27 854 25.22 17.5 63.4 52 7.6 45.7
13:45 1025 30.27 854 25.22 17.2 62.9 56 8.4 47.1
13:50 1025 30.27 854 25.22 17.1 62.7 54 7.7 45.9
13:55 1024 30.24 854 25.22 17.4 63.4 53 7.8 46
14:00 1024 30.24 854 25.22 17.8 64 51 7.7 45.8
14:05 1024 30.24 854 25.22 18.7 65.7 49 7.8 46
14:10 1024 30.24 853 25.19 18.8 65.9 50 8.3 46.9
14:15 1024 30.24 853 25.19 18.4 65.2 51 8.3 46.9
14:20 1024 30.24 853 25.19 18.1 64.7 52 8.2 46.8
14:25 1024 30.24 853 25.19 18.4 65.2 50 8 46.3
14:30 1024 30.24 853 25.19 18.7 65.6 50 8.1 46.6
14:35 1024 30.24 853 25.19 18.9 66.1 48 7.7 45.9
14:40 1024 30.24 853 25.19 19 66.2 49 8.2 46.7
14:45 1024 30.24 853 25.19 18.6 65.5 51 8.4 47.1
14:50 1024 30.24 853 25.19 18.4 65.1 52 8.4 47.1
14:55 1023 30.21 853 25.19 17.6 63.7 53 8 46.4
15:00 1023 30.21 853 25.19 17.7 63.9 55 8.7 47.6
15:05 1023 30.21 852 25.16 17.3 63.2 55 8.3 47
15:10 1023 30.21 852 25.16 17.3 63.1 55 8.3 46.9
15:15 1023 30.21 852 25.16 17.3 63.2 54 8 46.4
15:20 1023 30.21 852 25.16 18.1 64.5 50 7.6 45.6
15:25 1023 30.21 852 25.16 18.2 64.7 54 8.9 48
15:30 1023 30.21 852 25.16 17.9 64.2 51 7.8 46
15:35 1023 30.21 852 25.16 18.9 65.9 49 8 46.4
15:40 1023 30.21 852 25.16 19.3 66.7 49 8.3 47
15:45 1023 30.21 852 25.16 19.2 66.6 52 9.2 48.5
15:50 1023 30.21 852 25.16 17.7 63.9 54 8.5 47.3
15:55 1023 30.21 852 25.16 18.3 64.9 51 8 46.4
16:00 1023 30.21 852 25.16 17.9 64.2 56 9.1 48.3
16:05 1023 30.21 852 25.16 17.1 62.8 58 8.8 47.8
16:10 1022 30.18 852 25.16 16.8 62.2 58 8.5 47.3
16:15 1022 30.18 852 25.16 17.4 63.3 55 8.4 47.1
16:20 1022 30.18 851 25.13 18.2 64.8 53 8.6 47.5
16:25 1022 30.18 851 25.13 18.7 65.7 51 8.6 47.5
16:30 1022 30.18 851 25.13 19.5 67 50 8.8 47.8
16:35 1022 30.18 851 25.13 19.7 67.5 48 8.5 47.2
16:40 1022 30.18 851 25.13 19.8 67.6 47 8.4 47.1
16:45 1022 30.18 851 25.13 19.7 67.5 48 8.4 47.1
16:50 1022 30.18 851 25.13 19.9 67.8 47 8.3 46.9
16:55 1022 30.18 851 25.13 20.1 68.1 47 8.5 47.3
17:00 1022 30.18 851 25.13 19.8 67.6 48 8.5 47.3
17:05 1022 30.18 851 25.13 19.1 66.3 52 9 48.3
17:10 1022 30.18 851 25.13 18.3 65 53 8.8 47.8
17:15 1022 30.18 851 25.13 18.3 65 52 8.4 47.2
17:20 1022 30.18 851 25.13 18.7 65.7 50 8.2 46.8
17:25 1022 30.18 851 25.13 19.1 66.4 49 8.4 47.1
17:30 1022 30.18 851 25.13 19.3 66.7 49 8.4 47.1
17:35 1022 30.18 851 25.13 19.1 66.3 50 8.5 47.3
17:40 1021 30.15 851 25.13 19.1 66.4 49 8.4 47
17:45 1021 30.15 851 25.13 19 66.2 50 8.6 47.5
17:50 1021 30.15 851 25.13 18.7 65.7 50 8.3 47
17:55 1021 30.15 851 25.13 18.8 65.8 50 8.3 47
18:00 1021 30.15 851 25.13 18.7 65.7 51 8.5 47.4
18:05 1021 30.15 851 25.13 18.5 65.3 52 8.5 47.2
18:10 1021 30.15 851 25.13 18.5 65.2 52 8.5 47.3
18:15 1021 30.15 851 25.13 18.5 65.3 53 8.8 47.8
18:20 1021 30.15 851 25.13 17.8 64 55 8.8 47.8
18:25 1021 30.15 851 25.13 17.1 62.8 57 8.6 47.6
18:30 1021 30.15 851 25.13 16.6 62 59 8.8 47.8
18:35 1021 30.15 851 25.13 16.2 61.2 60 8.6 47.5
18:40 1021 30.15 851 25.13 16 60.9 61 8.6 47.4
18:45 1021 30.15 851 25.13 15.9 60.7 62 8.6 47.5
18:50 1021 30.15 851 25.13 15.9 60.6 62 8.7 47.7
18:55 1021 30.15 851 25.13 15.9 60.6 62 8.7 47.7
19:00 1021 30.15 851 25.13 15.9 60.6 62 8.8 47.8
19:05 1021 30.15 850 25.1 15.8 60.5 62 8.6 47.5
19:10 1021 30.15 850 25.1 15.9 60.7 62 8.7 47.7
19:15 1021 30.15 850 25.1 15.8 60.5 60 8.3 46.9
19:20 1021 30.15 850 25.1 16 60.8 58 7.8 46.1
19:25 1021 30.15 851 25.13 16.3 61.3 62 9.1 48.3
19:30 1021 30.15 850 25.1 15.9 60.6 63 9 48.2
19:35 1021 30.15 850 25.1 15.7 60.3 65 9.1 48.4
19:40 1021 30.15 850 25.1 15.7 60.2 66 9.5 49
19:45 1021 30.15 850 25.1 15.5 59.8 66 9.2 48.6
19:50 1021 30.15 850 25.1 15.2 59.3 69 9.5 49.1
19:55 1021 30.15 850 25.1 14.8 58.6 72 9.7 49.5
20:00 1021 30.15 850 25.1 14.5 58.1 75 10.1 50.1
20:05 1021 30.15 850 25.1 14.4 57.9 74 9.9 49.9
20:10 1021 30.15 850 25.1 14.3 57.8 73 9.7 49.4
20:15 1021 30.15 850 25.1 14.3 57.8 74 9.7 49.5
20:20 1021 30.15 850 25.1 14.3 57.8 73 9.7 49.4
20:25 1021 30.15 850 25.1 14.6 58.2 69 9.1 48.3
20:30 1021 30.15 850 25.1 14.9 58.9 70 9.5 49.1
20:35 1021 30.15 850 25.1 14.8 58.6 71 9.6 49.3
20:40 1021 30.15 850 25.1 14.8 58.7 70 9.4 48.9
20:45 1021 30.15 850 25.1 15.4 59.7 65 8.9 48
20:50 1021 30.15 850 25.1 15.7 60.2 63 8.6 47.6
20:55 1021 30.15 850 25.1 16.1 60.9 63 9.1 48.3
21:00 1021 30.15 850 25.1 15.9 60.5 63 9 48.2
21:05 1021 30.15 850 25.1 15.7 60.2 63 8.7 47.7
21:10 1021 30.15 850 25.1 15.5 59.9 73 10.7 51.2
21:15 1021 30.15 850 25.1 14.4 57.9 75 10.1 50.1
21:20 1021 30.15 850 25.1 14.5 58.1 71 9.3 48.8
21:25 1021 30.15 850 25.1 14.9 58.8 68 9.1 48.4
21:30 1021 30.15 850 25.1 15.3 59.5 67 9.2 48.5
21:35 1021 30.15 850 25.1 15.5 59.8 68 9.6 49.4
21:40 1021 30.15 850 25.1 15 59 76 10.8 51.5
21:45 1021 30.15 850 25.1 13.9 57 78 10.2 50.3
21:50 1021 30.15 850 25.1 13.5 56.2 78 9.7 49.5
21:55 1021 30.15 850 25.1 13.4 56 78 9.6 49.2
22:00 1021 30.15 850 25.1 13.5 56.2 77 9.5 49.2
22:05 1021 30.15 850 25.1 13.6 56.5 77 9.7 49.5
22:10 1021 30.15 850 25.1 13.7 56.7 76 9.6 49.3
22:15 1021 30.15 850 25.1 13.8 56.8 76 9.6 49.3
22:20 1021 30.15 850 25.1 13.6 56.5 77 9.7 49.4
22:25 1021 30.15 850 25.1 13.5 56.2 76 9.4 48.9
22:30 1021 30.15 850 25.1 13.4 56.1 76 9.3 48.7
22:35 1021 30.15 850 25.1 13.4 56.1 77 9.4 48.9
22:40 1021 30.15 850 25.1 13.3 56 76 9.3 48.7
22:45 1021 30.15 850 25.1 13.3 56 76 9.2 48.5
22:50 1021 30.15 850 25.1 13.5 56.2 75 9.2 48.5
22:55 1021 30.15 850 25.1 13.4 56.1 76 9.2 48.6
23:00 1020 30.12 850 25.1 13.3 56 76 9.2 48.5
23:05 1020 30.12 850 25.1 13.3 56 74 8.9 48
23:10 1020 30.12 850 25.1 13.3 56 74 8.8 47.9
23:15 1020 30.12 849 25.07 13.4 56.2 73 8.8 47.8
23:20 1020 30.12 849 25.07 13.5 56.2 74 9 48.1
23:25 1020 30.12 849 25.07 13.3 56 76 9.2 48.5
23:30 1020 30.12 849 25.07 12.7 54.8 79 9 48.3
23:35 1020 30.12 849 25.07 12.4 54.4 77 8.5 47.3
23:40 1020 30.12 849 25.07 12.6 54.8 75 8.4 47.1
23:45 1020 30.12 849 25.07 12.9 55.1 75 8.6 47.5
23:50 1020 30.12 849 25.07 13 55.5 72 8.1 46.7
23:55 1020 30.12 849 25.07 13.3 56 72 8.3 47
24:00 1020 30.12 849 25.07 13.6 56.4 70 8.3 46.9